[Iaude] MPEC L44: 2022 LC1 [a=1.54,e=0.22,i=4.9,H=23.3]

mpec at marsden.cfa.harvard.edu mpec at marsden.cfa.harvard.edu
Mon Jun 6 06:32:33 EDT 2022


M.P.E.C. 2022-L44                                  Issued 2022 June 6, 10:30 UT

     The Minor Planet Electronic Circulars contain information on unusual
         minor planets and routine data on comets.  They are published
    on behalf of Division F of the International Astronomical Union by the
          Minor Planet Center, Smithsonian Astrophysical Observatory,
                          Cambridge, MA 02138, U.S.A.

             Prepared using the Tamkin Foundation Computer Network

                              MPC at CFA.HARVARD.EDU
            URL https://www.minorplanetcenter.net/    ISSN 1523-6714

                                    2022 LC1                                    


Observations:
     K22L01C* C2022 06 04.35981415 29 53.433-29 02 41.76         21.52wUEL044F52
     K22L01C  C2022 06 04.37000615 29 53.658-29 02 28.88         21.86wUEL044F52
     K22L01C  C2022 06 04.38019715 29 53.876-29 02 15.42         21.38wUEL044F52
     K22L01C  C2022 06 04.47764915 29 56.159-29 00 05.70         21.04GVEL044F52
     K22L01C  C2022 06 04.47828015 29 56.175-29 00 04.78         20.86GVEL044F52
     K22L01C KC2022 06 05.05764215 30 22.463-28 47 09.87         20.9 GXEL044Y00
     K22L01C KC2022 06 05.07059115 30 22.716-28 46 52.86         21.0 GXEL044Y00
     K22L01C KC2022 06 05.08335415 30 22.972-28 46 36.11               XEL044Y00
     K22L01C ^C2022 06 05.34017415 30 35.123-28 41 26.70         21.09GVEL044568
     K22L01C ^C2022 06 05.34213415 30 35.168-28 41 24.19         21.12GVEL044568
     K22L01C |C2022 06 06.04401 15 31 07.36 -28 25 30.4          21.4 VuEL044807
     K22L01C |C2022 06 06.04821 15 31 07.48 -28 25 24.2          21.6 VuEL044807
     K22L01C |C2022 06 06.05241 15 31 07.66 -28 25 18.3          21.2 VuEL044807
     K22L01C KC2022 06 06.22077715 31 14.376-28 22 19.06         20.24GVEL044I52
     K22L01C KC2022 06 06.22510715 31 14.552-28 22 12.54         20.87GVEL044I52
     K22L01C KC2022 06 06.22942315 31 14.617-28 22 06.96         20.91GVEL044I52

Observer details:
568 Mauna Kea.  Observer Y. Ramanjooloo.  Measurers R. Weryk, Y. Ramanjooloo,
    R. Wainscoat.  2.24-m University of Hawaii reflector + CCD.
807 Cerro Tololo Observatory, La Serena.  Observers T. Linder, R. Holmes, L.
    Horn.  0.61-m f/6.5 Dall-Kirkham Astrograph + CCD.
F52 Pan-STARRS 2, Haleakala.  Observers J. Bulger, T. Lowe, A. Schultz, I.
    Smith, K. Chambers, T. Dukes.  Measurers K. Chambers, S. Chastel, T. de
    Boer, J. Fairlamb, H. Gao, M. Huber, C.-C. Lin, E. Magnier, Y.
    Ramanjooloo, R. Wainscoat, R. Weryk.  1.8-m Ritchey-Chretien + CCD.
I52 Steward Observatory, Mt. Lemmon Station.  Observer G. J. Leonard.
    Measurers E. J. Christensen, D. Fay, J. B. Fazekas, D. C. Fuls, A. R.
    Gibbs, A. D. Grauer, H. Groeller, J. K. Hogan, R. A. Kowalski, S. M.
    Larson, G. J. Leonard, D. Rankin, R. L. Seaman, A. Serrano, F. C. Shelly,
    K. W. Wierzchos.  1.0-m prime focus + CCD.
Y00 SONEAR Observatory, Oliveira.  Observer C. Jacques.  0.45-m f/2.9 0.45-m
    f/2.9 reflector + CCD.

Orbital elements:
2022 LC1                                                 Earth MOID = 0.1951 AU
Epoch 2022 Jan. 21.0 TT = JDT 2459600.5                 Veres                   
M 283.69505              (2000.0)            P               Q                  
n   0.51459092     Peri.  351.62793     -0.13833315     +0.98663755             
a   1.5422732      Node   270.38939     -0.90360264     -0.16131471             
e   0.2159249      Incl.    4.93842     -0.40542103     +0.02288909             
P   1.92           H   23.38          G   0.15           U   8                  
Residuals in seconds of arc
220604 F52  0.1+  0.0     220605 Y00  0.8-  0.2+    220606 807 (0.5+  1.1+)
220604 F52  0.1+  0.2-    220605 Y00  1.4-  0.3+    220606 I52  0.0   0.7-
220604 F52  0.0   0.1+    220605 568  0.0   0.0     220606 I52  0.7+  0.2+
220604 F52  0.1+  0.0     220605 568  0.0   0.0     220606 I52  0.1-  0.2+
220604 F52  0.1+  0.0     220606 807  0.1-  0.4-
220605 Y00  0.0   0.1+    220606 807  0.2-  0.5+

Ephemeris:
2022 LC1                 a,e,i = 1.54, 0.22, 5                   q = 1.2093
Date    TT    R. A. (2000) Decl.     Delta      r    Elong.  Phase     V
2022 05 07    15 21 31.9 -35 49 22   0.2501  1.2468   159.9    16.1    21.7
...
2022 05 22    15 24 08.6 -33 15 51   0.2188  1.2252   165.4    12.0    21.2
...
2022 05 30    15 26 50.4 -30 53 33   0.2105  1.2173   163.9    13.4    21.2
...
2022 06 05    15 30 19.8 -28 48 20   0.2081  1.2130   160.8    15.9    21.3
2022 06 06    15 31 03.8 -28 26 33   0.2080  1.2125   160.2    16.4    21.3
2022 06 07    15 31 50.6 -28 04 36   0.2080  1.2120   159.6    16.9    21.3
...
2022 06 13    15 37 30.4 -25 51 36   0.2098  1.2098   155.7    20.2    21.4
...
2022 06 21    15 47 35.6 -22 59 33   0.2168  1.2093   150.3    24.6    21.6
...
2022 07 06    16 13 19.8 -18 32 43   0.2437  1.2160   141.1    31.7    22.1

M. P. C. Staff               (C) Copyright 2022 MPC           M.P.E.C. 2022-L44




More information about the Iaude mailing list